Regional Weather Roundup
Issued by NWS

Home | Current Version | Previous Version | Graphics & Text | Print | Product List | Glossary On
Versions: 1 2 3 4 5 6 7 8 9 10 11 12 13 14 15 16 17 18 19 20 21 22 23 24 25 26 27 28 29 30 31 32 33 34 35 36 37 38 39 40 41 42 43 44 45 46 47 48 49 50
000
ASUS44 KMEG 260300
RWRTN
TENNESSEE HOURLY STATE WEATHER ROUNDUP
NATIONAL WEATHER SERVICE MEMPHIS TN
900 PM CST TUE NOV 25 2014

TNZ002-004-019-021-049-052-054-088>092-260400-
WEST TENNESSEE

CITY           SKY/WX    TMP DP  RH WIND       PRES   REMARKS
MEMPHIS INTL   CLEAR     36  28  73 CALM      30.21R
NWS MEMPHIS      N/A     32 N/A N/A MISG        N/A
JACKSON        CLEAR     33  26  75 CALM      30.20S
DYERSBURG      CLEAR     32  18  55 CALM      30.22S
UNION CITY     CLEAR     28  25  86 CALM      30.19S
PARIS          CLEAR     27  25  93 CALM      30.18S
LEXINGTON      CLEAR     37  25  60 CALM      30.18R
SAVANNAH       CLEAR     30  28  93 CALM      30.19S
$$

TNZ008-025-027-028-033-062-065-066-260400-
NORTH MIDDLE TENNESSEE

CITY           SKY/WX    TMP DP  RH WIND       PRES   REMARKS
NASHVILLE      CLOUDY    42  27  55 NW6       30.17R
CLARKSVILLE    MOCLDY    34  28  79 N6        30.18R WCI  29
COOKEVILLE     CLEAR     41  28  60 CALM      30.13R
CROSSVILLE     CLOUDY    43  28  55 CALM      30.11R
$$

TNZ061-075-076-078-094-096-097-260400-
SOUTH MIDDLE TENNESSEE

CITY           SKY/WX    TMP DP  RH WIND       PRES   REMARKS
TULLAHOMA      PTCLDY    39  27  60 NW6       30.14R WCI  35
WINCHESTER     MOCLDY    43  30  61 CALM      30.15R
SHELBYVILLE    CLEAR     41  30  65 VRB7      30.16R
$$

TNZ017-018-042-046-047-260400-
NORTHEAST TENNESSEE

CITY           SKY/WX    TMP DP  RH WIND       PRES   REMARKS
TRI CITIES     CLOUDY    43  33  68 CALM      30.10S
ELIZABETHTON   CLEAR     39  32  75 CALM      30.09R
$$

TNZ012-013-036-069-073-074-260400-
CENTRAL EAST TENNESSEE

CITY           SKY/WX    TMP DP  RH WIND       PRES   REMARKS
KNOXVILLE      CLOUDY    49  30  48 N6        30.07S
OAK RIDGE      CLOUDY    49  29  46 CALM      30.09F
GATLINBURG     CLEAR     43  34  70 NE3       30.05F
$$

TNZ083-085-099-260400-
SOUTHEAST TENNESSEE

CITY           SKY/WX    TMP DP  RH WIND       PRES   REMARKS
CHATTANOOGA    CLOUDY    49  32  52 N6        30.10F
$$

SKY/WX REPORTED AS FAIR MEANS FEW OR NO CLOUDS BELOW
12 THOUSAND FEET.



USA.gov is the U.S. government's official web portal to all federal, state and local government web resources and services.